MST,Max TemperatureF,Mean TemperatureF,Min TemperatureF,Max Dew PointF,MeanDew PointF,Min DewpointF,Max Humidity, Mean Humidity, Min Humidity, Max Sea Level PressureIn, Mean Sea Level PressureIn, Min Sea Level PressureIn, Max VisibilityMiles, Mean VisibilityMiles, Min VisibilityMiles, Max Wind SpeedMPH, Mean Wind SpeedMPH, Max Gust SpeedMPH,PrecipitationIn, CloudCover, Events, WindDirDegrees
2013-2-1,50,35,20,28,23,18,92,66,39,30.39,30.31,30.25,10,10,10,9,3,12,0.00,0,,227
2013-2-2,43,33,23,28,23,19,88,65,41,30.46,30.39,30.33,10,10,10,7,1,7,0.00,0,,315
2013-2-3,51,39,27,30,27,22,85,62,39,30.28,30.18,30.05,10,10,10,9,3,12,0.00,3,,342
2013-2-4,51,36,20,26,22,17,88,60,32,30.23,30.16,30.09,10,10,10,9,2,14,0.00,0,,21
2013-2-5,57,40,22,24,21,17,88,55,22,30.12,30.02,29.87,10,10,10,20,4,25,0.00,0,,194
2013-2-6,50,41,31,26,23,21,69,55,41,30.14,29.96,29.81,10,10,10,17,6,23,0.00,1,,9
2013-2-7,50,33,16,22,19,13,88,59,29,30.21,30.04,29.80,10,10,10,23,7,31,0.00,0,,194
2013-2-8,41,32,22,30,23,13,82,60,37,29.78,29.65,29.57,10,7,0,35,16,47,0.10,5,Fog-Snow,203
2013-2-9,35,27,19,27,23,16,92,74,56,29.89,29.77,29.63,10,5,0,15,2,20,0.08,7,Fog-Snow,279
2013-2-10,30,25,20,25,20,14,96,83,69,30.04,29.88,29.81,10,4,1,14,4,17,0.18,8,Snow,341
2013-2-11,30,21,11,16,11,-1,92,75,57,30.33,30.15,29.96,10,10,8,13,4,17,T,5,Snow,8
2013-2-12,34,16,-2,18,7,-5,92,71,49,30.49,30.41,30.32,10,10,10,10,3,14,0.00,0,,41
2013-2-13,43,26,9,26,17,6,91,70,49,30.43,30.33,30.22,10,10,10,12,4,14,0.00,0,,26
2013-2-14,44,30,15,25,19,13,92,69,45,30.44,30.34,30.24,10,10,10,21,7,28,0.00,2,,30
2013-2-15,46,31,15,27,20,12,88,63,38,30.54,30.47,30.40,10,10,10,15,5,20,0.00,0,,23
2013-2-16,58,37,15,25,18,13,92,57,21,30.49,30.30,30.02,10,10,10,12,3,14,0.00,0,,152
2013-2-17,54,43,31,25,17,11,56,38,19,30.00,29.87,29.70,10,10,10,21,7,25,0.00,0,,311
2013-2-18,50,34,17,19,12,5,84,51,18,30.16,30.04,29.91,10,10,10,17,4,22,0.00,0,,200
2013-2-19,50,38,26,20,14,11,63,44,24,29.89,29.67,29.45,10,10,10,26,12,37,0.00,1,,185
2013-2-20,38,34,29,30,28,23,100,74,48,29.79,29.61,29.44,10,5,0,17,7,22,0.01,8,Fog-Snow,310
2013-2-21,35,26,17,27,21,13,100,75,49,30.06,29.87,29.76,10,6,1,16,6,21,0.03,6,Snow,359
2013-2-22,38,25,12,17,13,9,88,62,35,30.19,30.13,30.07,10,10,10,16,5,21,0.00,0,,11
2013-2-23,41,29,16,27,20,10,92,68,44,30.09,29.91,29.78,10,6,0,36,10,44,0.11,5,Fog-Snow,274
2013-2-24,30,20,9,18,14,7,91,72,53,30.32,30.10,29.93,10,7,1,25,11,31,0.03,6,Snow,6
2013-2-25,44,24,3,17,9,3,88,60,32,30.34,30.18,30.02,10,10,10,20,5,26,0.00,0,,199
2013-2-26,34,28,22,23,18,12,92,67,41,30.34,30.13,30.01,10,9,2,24,9,31,T,5,Snow,10
2013-2-27,40,26,11,15,10,6,92,60,27,30.46,30.40,30.34,10,10,10,16,6,25,0.00,0,,18
2013-2-28,51,32,13,20,13,8,84,53,21,30.51,30.45,30.38,10,10,10,12,3,15,0.00,0,,37